Regional Weather Roundup
Issued by NWS

Home | Current Version | Previous Version | Text Only | Print | Product List | Glossary On
Versions: 1 2 3 4 5 6 7 8 9 10 11 12 13 14 15 16 17 18 19 20 21 22 23 24 25 26 27 28 29 30 31 32 33 34 35 36 37 38 39 40 41 42 43 44 45 46 47 48 49 50
000
ASUS43 KDTX 221610
RWRMI
MICHIGAN HOURLY REGIONAL WEATHER ROUNDUP
NATIONAL WEATHER SERVICE DETROIT/PONTIAC MI
1200 PM EDT MON SEP 22 2014

NOTE: "FAIR" INDICATES FEW OR NO CLOUDS BELOW 12,000 FEET WITH NO
SIGNIFICANT WEATHER AND/OR OBSTRUCTION TO VISIBILITY.

MIZ047>049-052>055-059>063-066>070-074>076-081>083-221700-
SOUTHEAST LOWER MICHIGAN

CITY           SKY/WX    TMP DP  RH WIND       PRES   REMARKS
ADRIAN         SUNNY     54  40  59 NW8       30.23S
ALMA           SUNNY     55  42  61 NW10G16   30.22S
ANN ARBOR      MOSUNNY   55  39  54 NW10      30.21S
BAD AXE        CLOUDY    50  41  70 NW8G16    30.18F
DETROIT CITY   PTSUNNY   55  38  52 NW8       30.21R
DETROIT        PTSUNNY   56  40  55 NW10      30.22R
FLINT          PTSUNNY   55  41  59 W14G24    30.21F
GROSSE ILE     MOSUNNY   55  41  58 NW10      30.20S
HILLSDALE      SUNNY     55  41  58 NW6       30.23S
HOWELL         MOSUNNY   53  41  64 NW7G16    30.21S

CITY           SKY/WX    TMP DP  RH WIND       PRES   REMARKS
JACKSON        MOSUNNY   54  42  64 NW7       30.23S
LAMBERTVILLE   MOSUNNY   55  41  58 W5        30.23S
LANSING        MOSUNNY   54  40  59 NW9G17    30.23S
LAPEER         NOT AVBL
MASON          SUNNY     53  41  62 NW9       30.22F
MONROE         MOSUNNY   55  41  58 NW10      30.20F
MT. CLEMENS    PTSUNNY   53  39  57 NW9       30.18R
PONTIAC        PTSUNNY   53  39  59 NW10      30.19S
PORT HOPE        N/A     52  38  58 NW8G20    30.16R
PORT HURON     CLOUDY    52  43  71 NW7       30.19S
TRI CITIES     MOSUNNY   55  42  61 NW9       30.22R
YPSILANTI      MOSUNNY   58  40  51 NW9       30.22R
$$
MIZ043>046-050>051-056>058-064>065-071>073-077>080-221700-
SOUTHWEST LOWER MICHIGAN

CITY           SKY/WX    TMP DP  RH WIND       PRES   REMARKS
BATTLE CREEK   SUNNY     55  41  59 NW12      30.25S
BENTON HARBOR  PTSUNNY   56  44  64 VRB3      30.27S
BIG RAPIDS     PTSUNNY   54  46  74 NW9       30.23R
COLDWATER      SUNNY     56  42  59 NW7       30.24F
HOLLAND        PTSUNNY   58  45  62 MISG      30.27S
GRAND RAPIDS   MOSUNNY   56  43  61 NW12      30.25S
KALAMAZOO      SUNNY     57  40  52 N9        30.26S
MARSHALL       SUNNY     54  40  60 NW8       30.23F
MUSKEGON       MOSUNNY   57  44  62 W8        30.26S
$$
MIZ016>042-221700-
NORTHERN LOWER MICHIGAN

CITY           SKY/WX    TMP DP  RH WIND       PRES   REMARKS
ALPENA         MOSUNNY   52  39  61 W9        30.15F
BEAVER ISLAND  CLOUDY    53  47  78 W12       30.17F
BELLAIRE       MOSUNNY   55  43  63 NW6       30.19F
CADILLAC       MOSUNNY   54  44  70 W12       30.20S
CHARLEVOIX     PTSUNNY   56  47  72 W14G20    30.21S
FRANKFORT      SUNNY     56  45  66 W8        30.22F
GAYLORD        MOSUNNY   51  40  65 W10       30.17S
GRAYLING       MOSUNNY   56  43  62 NW8       30.19S
HARBOR SPRINGS PTSUNNY   55  44  65 W7        30.17F
HOUGHTON LAKE  MOSUNNY   54  42  64 NW9       30.19S
MANISTEE       MOSUNNY   54  43  66 W6        30.24S
OSCODA         PTSUNNY   53  39  60 NW6       30.16F
PELLSTON       MOSUNNY   54  42  64 W9        30.16F
TRAVERSE CITY  MOSUNNY   56  43  61 SW8       30.19F
$$
MIZ007>008-015-221700-
EASTERN UPPER MICHIGAN

CITY           SKY/WX    TMP DP  RH WIND       PRES   REMARKS
KINROSS        MOSUNNY   52  43  71 W12G18    30.13R
MACKINAC ISLAN MOSUNNY   51  41  69 W12G20    30.15S
NEWBERRY       CLOUDY    49  42  76 SW12G21   30.14S
S. S. MARIE    SUNNY     51  41  68 W13G20    30.12R
$$
MIZ004>006-011>014-085-221700-
CENTRAL UPPER MICHIGAN

CITY           SKY/WX    TMP DP  RH WIND       PRES   REMARKS
MANISTIQUE     CLOUDY    52  47  83 SW5       30.15F
ESCANABA       CLOUDY    54  45  71 W6        30.17F
MENOMINEE      CLOUDY    54  45  71 W5        30.20S
SAWYER-GWINN   SUNNY     57  46  67 W12       30.14F
$$
MIZ001>003-009>011-084-221700-
WESTERN UPPER MICHIGAN

CITY           SKY/WX    TMP DP  RH WIND       PRES   REMARKS
IRON MOUNTAIN  MOSUNNY   60  46  59 NW8       30.16F
HOUGHTON       MOSUNNY   59  48  67 W16       30.12F
COPPER HARBOR    N/A     61  47  59 N9G21     30.09S
IRONWOOD       MOSUNNY   59  48  67 W12       30.18S
$$

ABBREVIATIONS USED IN REMARKS
   TC - TEMPERATURE IN CELSIUS
  WCI - WIND CHILL INDEX
   HX - HEAT INDEX
  VSB - VISIBILITY




USA.gov is the U.S. government's official web portal to all federal, state and local government web resources and services.